Overview Statistics Trail Chart Weather Telemetry Raw packets
 

This is the latest recevied weather packets stored in our database for station/object KB1WCR. If no packets are shown the sender has not sent any weather packets the latest 10 day(s).

<< 55 56 57 58 59 60 61 >>
Time Temp. Humidity Pressure Rain* Wind** Luminosity Snow
1788022828 23.89° C 50% 1021.5 hPa 0 mm - 701 W/m² -
1788022525 23.89° C 50% 1021.5 hPa 0 mm - 695 W/m² -
1788022220 23.33° C 49% 1021.6 hPa 0 mm - 704 W/m² -
1788021918 22.78° C 50% 1021.7 hPa 0 mm - 701 W/m² -
1788021614 23.33° C 49% 1021.8 hPa 0 mm - 712 W/m² -
1788021311 23.33° C 49% 1021.9 hPa 0 mm - 705 W/m² -
1788021007 23.89° C 48% 1021.8 hPa 0 mm - 703 W/m² -
1788020701 23.33° C 51% 1022 hPa 0 mm - 713 W/m² -
1788020396 22.78° C 51% 1021.9 hPa 0 mm - 717 W/m² -
1788020093 23.33° C 51% 1022.1 hPa 0 mm - 717 W/m² -
1788019792 23.33° C 52% 1022 hPa 0 mm - 717 W/m² -
1788019487 23.33° C 51% 1022 hPa 0 mm - 713 W/m² -
1788019184 22.78° C 50% 1021.9 hPa 0 mm - 710 W/m² -
1788018879 23.33° C 51% 1022 hPa 0 mm - 705 W/m² -
1788018574 22.78° C 52% 1022.3 hPa 0 mm - 703 W/m² -
1788018273 22.78° C 52% 1022.2 hPa 0 mm - 698 W/m² -
1788017970 22.78° C 51% 1022.5 hPa 0 mm - 694 W/m² -
1788017666 22.78° C 50% 1022.3 hPa 0 mm - 690 W/m² -
1788017362 22.78° C 49% 1022.3 hPa 0 mm - 685 W/m² -
1788017059 22.22° C 50% 1022.5 hPa 0 mm - 680 W/m² -
1788016757 22.78° C 50% 1022.6 hPa 0 mm - 674 W/m² -
1788016456 22.78° C 51% 1022.3 hPa 0 mm - 667 W/m² -
1788016156 22.22° C 51% 1022.6 hPa 0 mm - 662 W/m² -
1788015854 22.78° C 52% 1022.6 hPa 0 mm - 654 W/m² -
1788015549 22.22° C 52% 1022.5 hPa 0 mm - 647 W/m² -

* Rain latest hour (hover to see other rain measurements)
** Current wind speed in m/s (hover to see current wind gust speed)